Regional Weather Roundup
Issued by NWS

Home | Current Version | Previous Version | Text Only | Print | Product List | Glossary Off
Versions: 1 2 3 4 5 6 7 8 9 10 11 12 13 14 15 16 17 18 19 20 21 22 23 24 25 26 27

000
ASUS45 KPSR 271510
RWRAZ

ARIZONA HOURLY REGIONAL WEATHER ROUNDUP
NATIONAL WEATHER SERVICE PHOENIX AZ
800 AM MST SAT AUG 27 2016

NOTE: FAIR INDICATES FEW OR NO CLOUDS BELOW 12,000 FEET WITH NO
SIGNIFICANT WEATHER AND/OR OBSTRUCTIONS TO VISIBILITY.

AZZ001>003-036-271600-
NORTHWEST ARIZONA

CITY           SKY/WX    TMP DP  RH WIND       PRES   REMARKS
BULLHEAD CITY  CLOUDY    81  57  44 N12       29.97R
KINGMAN        PTSUNNY   65  54  67 NE8       30.14R
$$

AZZ004>008-015-016-018-271600-
NORTH CENTRAL ARIZONA

CITY           SKY/WX    TMP DP  RH WIND       PRES   REMARKS
GRAND CANYON   CLOUDY    54  50  86 W3        30.29R
PRESCOTT       TSTM      56  55  97 SE6       30.22R
FLAGSTAFF      HVY RAIN  49  49 100 VRB5      30.35R FOG
PAYSON         TSTM      57  55  94 N20       30.21F
PAGE           LGT RAIN  64  53  67 CALM      30.17R
$$

AZZ009>014-017-271600-
NORTHEAST ARIZONA

CITY           SKY/WX    TMP DP  RH WIND       PRES   REMARKS
WINSLOW        RAIN      56  53  90 W10       30.26R FOG
SAINT JOHNS    MOSUNNY   66  49  54 CALM      30.21S
SHOW LOW       PTSUNNY   63  46  55 S7        30.26R
$$

AZZ023-271600-
GREATER PHOENIX AREA

CITY           SKY/WX    TMP DP  RH WIND       PRES   REMARKS
PHOENIX        MOSUNNY   82  59  45 NE10      29.94R
BUCKEYE        MOSUNNY   81  59  47 E5        29.95R
GLENDALE       PTSUNNY   79  61  53 N16       29.96R
LUKE AFB       MOSUNNY   78  61  55 N23       29.94R
DEER VALLEY    PTSUNNY   76  60  57 N13       29.97R
SCOTTSDALE     CLOUDY    81  59  47 NE17      29.98R
MESA-GATEWAY   PTSUNNY   81  54  39 E6        29.97R
CHANDLER       PTSUNNY   82  50  32 NW6       29.95R
$$

AZZ027-028-271600-
SOUTHWEST MARICOPA COUNTY AND PINAL COUNTY

CITY           SKY/WX    TMP DP  RH WIND       PRES   REMARKS
CASA GRANDE    MOSUNNY   82  46  28 SE5       29.97R
GILA BEND      FAIR      83  43  24 NE5       29.91R
$$

AZZ503-504-507>509-271600-
SOUTHEAST ARIZONA

CITY           SKY/WX    TMP DP  RH WIND       PRES   REMARKS
TUCSON         MOSUNNY   75  54  47 SE8       30.06R
DAVIS-MONTHAN  MOSUNNY   75  54  48 S5        30.04R
RYAN FIELD     MOSUNNY   73  48  40 S3        30.04R
NOGALES        SUNNY     71  54  54 CALM      30.13R
SIERRA VISTA   PTSUNNY   71  54  55 VRB1      30.18R
DOUGLAS        CLOUDY    71  57  61 S5        30.14R
SAFFORD        MOSUNNY   72  54  53 SE10      30.06R
$$

AZZ020-021-025-026-031-271600-
SOUTHWEST ARIZONA

CITY           SKY/WX    TMP DP  RH WIND       PRES   REMARKS
YUMA           SUNNY     83  55  38 NE6       29.85R
$$

CAZ031-033-041-043-047-048-061-271600-
SOUTHERN CALIFORNIA

CITY           SKY/WX    TMP DP  RH WIND       PRES   REMARKS
DOWNTOWN L.A.  CLOUDY    66  58  75 CALM      29.98R
L.A. AIRPORT   CLOUDY    67  57  70 SE6       29.99R
SAN DIEGO      CLOUDY    68  57  68 CALM      30.00R
BURBANK        CLOUDY    64  56  75 VRB3      29.99R HAZE
ONTARIO        CLOUDY    63  56  78 CALM      30.00R HAZE
RIVERSIDE      CLOUDY    64  56  75 VRB3      30.01R
PALM SPRINGS   SUNNY     76  53  44 S3        29.91R
EL CENTRO NAS  SUNNY     80  62  54 NE6       29.86R
IMPERIAL       SUNNY     82  63  52 CALM      29.84R
BLYTHE         SUNNY     86  61  42 NE15      29.89R
$$

NVZ020-UTZ003-271600-
SOUTHERN NEVADA-UTAH

CITY           SKY/WX    TMP DP  RH WIND       PRES   REMARKS
LAS VEGAS      CLOUDY    72  55  55 NW9       30.04S
SALT LAKE CITY MOSUNNY   71  44  37 SE14      30.07S
$$

NMZ009-TXZ055-271600-
NEW MEXICO-WEST TEXAS

CITY           SKY/WX    TMP DP  RH WIND       PRES   REMARKS
ALBUQUERQUE    MOSUNNY   68  51  54 VRB3      30.22R
EL PASO        MOSUNNY   75  61  61 SE7       30.11S
$$


........................KEY........................
SKY/WX - SKY CONDITION/WEATHER
TMP    - TEMPERATURE IN FAHRENHEIT
DP     - DEW POINT IN FAHRENHEIT
RH     - RELATIVE HUMIDITY IN PERCENT
WIND   - DIRECTION AND SPEED IN MILES PER HOUR (MPH)
VRB    - VARIABLE WIND DIRECTION
PRES   - MEAN SEA LEVEL PRESSURE IN INCHES OF MERCURY
         F - FALLING PRESSURE   R - RISING PRESSURE
         S - STEADY PRESSURE
VSB    - VISIBILITY IN MILES
HX     - HEAT INDEX IN FAHRENHEIT
WCI    - WIND CHILL INDEX IN FAHRENHEIT
TC     - TEMPERATURE IN CELSIUS WHICH IS ALSO KNOWN AS
         TEMPERATURE IN CENTIGRADE
AFB    - AIR FORCE BASE
         LUKE AFB IS LUKE AIR FORCE BASE
         DAVIS-MONTHAN IS DAVIS-MONTHAN AIR FORCE BASE
NAS    - NAVAL AIR STATION
         EL CENTRO NAS IS EL CENTRO NAVAL AIR STATION
N/A    - NOT AVAILABLE





USA.gov is the U.S. government's official web portal to all federal, state and local government web resources and services.